Ketchikan, AK

7:47 AM AKDT on May 27, 2018 (GMT -0800)
Ketchikan International

Weather History for PAKT - February, 2018

Change the Weather History Date:

Wednesday, February 21, 2018

  Actual Average Record
Temperature  
Mean Temperature 34 °F -  
Max Temperature 42 °F 43 °F 55 °F (1970)
Min Temperature 26 °F 32 °F 15 °F (1993)
Degree Days  
Heating Degree Days 31    
Moisture  
Dew Point 27 °F    
Average Humidity 74    
Maximum Humidity 92    
Minimum Humidity 49    
Precipitation  
Precipitation 0.00 in - - ()
Sea Level Pressure  
Sea Level Pressure 30.35 in    
Wind  
Wind Speed 8 mph (NW)    
Max Wind Speed 21 mph    
Max Gust Speed -    
Visibility 10 miles    
Events Snow    
Averages and records for this station are not official NWS values.
T = Trace of Precipitation, MM = Missing Value Source: NWS Daily Summary

Daily Weather History Graph

Daily Weather History Graph

Search for Another Location

Airport or City:

Astronomy

Feb. 21, 2018 Rise Set
Actual Time 6:55 AM AKST 5:05 PM AKST
Civil Twilight 6:18 AM AKST 5:43 PM AKST
Nautical Twilight 5:36 AM AKST 6:25 PM AKST
Astronomical Twilight 4:53 AM AKST 7:08 PM AKST
Moon 9:26 AM AKST (2/21) No Moon Set
Length of Visible Light 11h 24m
Length of Day
10h 09m
Waxing Crescent, 34% of the Moon is Illuminated
Feb 21
Waxing Crescent
Feb 22
First Quarter
Mar 1
Full
Mar 9
Last Quarter
Mar 17
New

Hourly Weather History & Observations

Time (AKST) Temp. Windchill Dew Point Humidity Pressure Visibility Wind Dir Wind Speed Gust Speed Precip Events Conditions
12:53 AM 34.0 °F 29.8 °F 30.0 °F 85% 30.30 in 10.0 mi West 4.6 mph - N/A   Overcast
1:53 AM 34.0 °F 29.8 °F 30.0 °F 85% 30.30 in 9.0 mi WNW 4.6 mph - N/A   Overcast
2:45 AM 34.0 °F 28.8 °F 30.9 °F 89% 30.29 in 10.0 mi NW 5.8 mph - N/A   Overcast
2:53 AM 34.0 °F 28.8 °F 30.9 °F 89% 30.30 in 7.0 mi NW 5.8 mph - N/A   Overcast
3:10 AM 34.0 °F 28.0 °F 32.0 °F 92% 30.29 in 4.0 mi NW 6.9 mph - 0.00 in Snow Light Snow
3:53 AM 34.0 °F 28.0 °F 30.9 °F 89% 30.29 in 10.0 mi NW 6.9 mph - 0.00 in   Overcast
4:23 AM 34.0 °F 27.2 °F 30.9 °F 89% 30.28 in 10.0 mi NW 8.1 mph - N/A   Overcast
4:53 AM 34.0 °F 24.6 °F 30.0 °F 85% 30.29 in 10.0 mi NW 13.8 mph - N/A   Mostly Cloudy
5:53 AM 35.1 °F 23.8 °F 25.0 °F 67% 30.30 in 10.0 mi NNW 20.7 mph - N/A   Partly Cloudy
6:53 AM 35.1 °F 25.2 °F 25.0 °F 67% 30.32 in 10.0 mi NNW 16.1 mph - N/A   Scattered Clouds
7:53 AM 35.1 °F 24.8 °F 26.1 °F 70% 30.32 in 10.0 mi NNW 17.3 mph - N/A   Scattered Clouds
8:53 AM 36.0 °F 28.0 °F 26.1 °F 67% 30.34 in 10.0 mi NNW 11.5 mph - N/A   Partly Cloudy
9:53 AM 37.0 °F 27.7 °F 27.0 °F 67% 30.37 in 10.0 mi NW 16.1 mph - N/A   Partly Cloudy
10:53 AM 37.4 °F 28.5 °F 28.4 °F 70% 30.39 in 10.0 mi NNW 15.0 mph - N/A   Partly Cloudy
11:53 AM 39.0 °F 31.4 °F 27.0 °F 62% 30.38 in 10.0 mi NNW 12.7 mph - N/A   Clear
12:53 PM 41.0 °F 35.8 °F 25.0 °F 53% 30.38 in 10.0 mi NW 8.1 mph - N/A   Clear
1:53 PM 42.8 °F 37.5 °F 24.8 °F 49% 30.37 in 10.0 mi WNW 9.2 mph - N/A   Clear
2:53 PM 41.0 °F 35.8 °F 24.8 °F 53% 30.38 in 10.0 mi NNW 8.1 mph - N/A   Clear
3:53 PM 39.2 °F 34.2 °F 26.6 °F 61% 30.39 in 10.0 mi NNW 6.9 mph - N/A   Clear
4:53 PM 35.6 °F 29.9 °F 24.8 °F 65% 30.38 in 10.0 mi NW 6.9 mph - N/A   Clear
5:53 PM 35.6 °F 29.9 °F 24.8 °F 65% 30.39 in 10.0 mi NW 6.9 mph - N/A   Clear
6:53 PM 33.8 °F 28.6 °F 26.6 °F 75% 30.39 in 10.0 mi NW 5.8 mph - N/A   Clear
7:53 PM 32.0 °F - 24.8 °F 75% 30.40 in 10.0 mi Calm Calm - N/A   Clear
8:53 PM 28.4 °F - 21.2 °F 74% 30.40 in 10.0 mi Calm Calm - N/A   Clear
9:53 PM 27.0 °F - 21.9 °F 81% 30.40 in 10.0 mi Calm Calm - N/A   Clear
10:53 PM 26.1 °F - 21.0 °F 81% 30.41 in 10.0 mi Calm Calm - N/A   Clear
11:53 PM 26.1 °F - 21.9 °F 84% 30.41 in 10.0 mi Calm Calm - N/A   Clear